Location: Unspecified
(47.9110°N, 14.3980°E)
Time: 16:37:55
(UTC+00:00)

Meteor 1-11 Rocket - Pass Details

Date: 06 August 2020
Orbit: 832 x 915 km, 81.2° (Epoch: 18 September)

Event Time Altitude Azimuth Distance (km) Brightness Sun altitude
Exits shadow 22:19:46 65° 180° (S) 938 3.6 -24.8°
Maximum altitude 22:20:39 85° 101° (E) 866 3.6 -24.8°
Drops below altitude 10° 22:26:24 10° 12° (NNE) 2,528 7.0 -25.0°
Sets 22:28:53 0° 13° (NNE) 3,483 8.0 -25.1°
